SCP
2 2 3 2 2 1 0 0 0 0 0 0 0 0 0 0 0 0 0 1 1 1 1 1 2 1 1 2 2 2 2 2 2 2 1 1 1 1 1 1 1 1 1 1 1 1 1 2 2
2 3 3 2 2 1 0 0 0 0 0 0 0 0 0 0 0 0 0 1 1 1 1 1 1 1 1 1 2 2 2 2 2 1 1 1 1 1 1 1 1 1 1 1 1 1 1 2 2
3 3 3 2 1 1 0 0 0 0 0 0 0 0 0 0 0 0 0 1 1 1 1 1 1 1 1 1 1 1 2 2 1 1 1 1 1 1 1 1 1 1 1 1 1 1 2 2 2
4 3 3 2 1 0 0 0 0 0 0 0 0 0 0 0 0 0 0 1 1 1 1 1 1 1 1 1 1 1 1 2 2 1 1 1 1 1 1 1 1 1 1 1 1 1 2 1 1
4 3 3 2 1 0 0 0 0 0 0 0 0 1 1 0 0 1 1 1 1 1 1 1 1 1 1 1 1 1 1 2 3 2 2 2 1 1 1 1 1 1 1 1 1 2 1 1 1
3 3 2 1 0 0 0 0 0 0 0 0 1 1 1 1 1 1 1 1 1 1 1 1 1 1 1 1 1 1 2 3 4 3 2 2 2 1 1 1 1 1 1 1 1 1 1 1 2
3 2 1 0 0 0 1 1 0 0 0 0 1 1 1 1 1 1 1 1 1 1 1 1 1 1 1 1 1 1 2 3 3 3 3 2 2 2 1 1 1 1 1 1 1 1 2 2 2
2 2 1 0 0 0 1 1 1 0 0 0 0 1 1 1 1 1 1 1 1 1 1 1 1 1 1 1 1 1 2 2 3 3 3 3 3 2 2 2 2 2 2 2 2 2 2 2 3
2 1 1 0 0 1 1 1 1 1 1 1 0 0 0 0 0 0 0 1 1 1 1 1 1 1 1 1 1 1 2 2 2 2 3 3 3 3 3 3 3 3 3 3 3 3 3 3 3
1 1 1 0 0 1 1 1 0 1 1 1 1 1 1 0 1 1 0 0 1 1 1 1 1 1 1 1 1 1 2 2 2 2 2 3 3 3 3 3 4 4 3 3 4 4 3 3 3
1 1 0 0 0 1 1 1 0 1 1 1 1 1 1 1 1 1 0 0 0 1 1 1 1 1 1 1 1 1 2 2 2 2 2 3 3 4 4 4 4 4 4 4 4 4 3 3 3
0 0 0 0 0 0 0 0 1 1 1 1 1 1 1 1 1 1 1 0 0 0 1 1 1 1 2 2 2 2 2 2 2 2 2 3 3 4 4 4 4 3 4 4 4 3 3 3 3
0 0 0 0 0 0 0 0 1 1 1 1 1 1 1 1 1 1 1 1 1 1 1 1 2 2 3 3 3 2 2 2 2 2 2 2 3 3 3 3 3 3 3 3 3 3 2 3 3
0 0 0 0 0 0 1 1 1 1 1 1 1 1 1 1 1 1 1 1 1 1 1 2 2 3 4 4 4 3 2 2 2 2 2 2 2 3 2 3 3 3 3 2 2 2 3 3 3
1 1 0 0 0 1 1 1 1 1 1 1 1 1 1 1 1 1 1 1 1 1 1 2 2 2 3 3 3 3 2 2 2 2 2 2 2 2 2 2 2 2 2 2 2 2 2 2 2
1 0 0 0 0 0 1 1 1 1 1 1 1 1 1 1 1 1 1 1 1 1 1 1 1 2 2 2 3 3 3 2 3 4 4 3 3 2 2 2 2 2 2 2 2 2 2 2 2
0 0 0 0 0 0 1 1 1 1 1 1 1 1 1 2 2 1 1 1 1 1 2 2 2 2 2 2 3 3 3 3 4 5 5 4 3 3 3 2 2 2 2 2 2 2 2 2 2
0 0 0 0 0 0 1 1 1 1 1 1 1 1 1 2 2 2 1 1 1 2 2 2 2 3 3 3 3 3 3 3 3 4 4 4 3 3 2 2 2 2 2 2 2 2 2 2 2
0 0 0 0 0 0 1 1 1 1 1 1 1 1 1 2 3 2 2 2 2 2 2 3 3 3 4 3 3 3 3 3 3 3 3 3 2 2 2 2 2 2 2 2 2 2 2 2 2
0 0 0 0 0 1 1 1 1 1 1 1 1 1 2 3 3 3 3 3 3 3 3 3 3 4 4 4 4 3 3 3 3 3 2 2 2 1 1 2 2 1 2 2 1 1 2 2 2
0 0 0 0 0 1 1 1 1 1 1 1 1 1 2 3 4 4 4 4 4 4 3 3 4 5 5 5 4 4 4 3 3 3 2 2 2 2 2 2 2 2 2 2 2 2 2 2 2
0 0 0 0 0 1 1 1 1 1 2 2 1 2 2 3 4 4 4 4 4 4 4 4 5 6 6 5 4 4 4 4 2 2 2 2 2 2 2 2 2 2 2 2 2 2 2 3 3
0 0 0 0 0 1 1 1 1 2 2 2 2 2 2 3 4 5 5 5 5 4 5 5 6 7 7 5 4 5 5 4 3 2 2 2 2 2 2 2 2 3 2 2 2 2 3 3 3
0 0 0 0 0 0 0 1 1 1 2 2 2 2 2 3 4 5 5 5 5 5 6 6 7 8 7 6 5 5 5 4 4 3 2 2 3 3 3 3 3 3 3 3 3 3 3 3 3
0 0 0 0 0 0 0 1 1 1 1 2 2 2 2 3 4 4 5 6 6 6 6 8 9 8 7 6 5 5 4 4 4 4 3 3 3 4 5 4 4 3 3 4 4 4 4 3 3
0 0 0 0 0 0 0 1 1 1 1 2 2 2 3 4 4 3 4 6 6 6 6 7 9 10 9 7 6 6 6 5 5 5 4 4 5 6 5 5 4 4 4 4 5 5 5 4 4
0 0 0 0 0 0 0 1 1 1 1 2 2 3 3 4 3 3 4 6 6 6 6 7 8 10 9 8 7 7 7 7 6 6 5 6 7 7 6 5 5 6 6 6 7 6 6 4 4
0 0 0 0 0 0 0 1 1 2 2 2 3 3 4 4 3 3 4 5 5 5 5 6 7 8 8 7 7 7 7 7 7 7 8 9 9 8 7 6 6 7 8 9 9 8 7 5 5
0 0 0 0 0 0 0 1 1 2 2 2 2 3 4 4 4 3 3 4 4 4 4 5 6 6 6 6 6 7 7 7 8 9 10 10 10 8 7 6 6 7 8 10 10 9 8 7 5
0 0 0 0 0 0 0 1 2 2 2 2 2 3 4 5 5 4 3 4 4 3 3 5 6 6 6 6 6 7 8 8 8 10 12 11 9 8 7 7 7 6 7 9 11 10 9 7 6
Wind_Speed
9 10 8 5 4 1 8 10 11 10 10 10 10 10 14 14 10 9 6 8 9 10 10 11 11 10 10 10 10 9 9 9 10 10 11 11 11 12 12 12 13 13 13 12 12 10 10 10 10
9 9 6 4 2 4 9 10 10 10 9 8 9 11 13 13 11 10 8 8 9 11 10 10 11 11 11 10 10 9 9 9 10 10 11 11 12 12 12 12 13 12 12 12 11 10 10 9 9
11 10 6 3 3 8 10 10 9 8 8 8 9 12 11 9 10 8 9 8 10 11 11 11 11 11 10 10 9 9 9 9 10 10 10 11 11 12 12 12 12 11 11 11 11 10 10 9 9
7 7 5 1 9 11 10 9 8 8 8 8 9 10 11 9 8 10 10 9 10 11 12 12 11 10 10 10 11 10 10 10 10 11 10 10 11 11 12 12 11 11 11 10 10 10 9 9 9
7 5 3 4 11 11 10 9 8 9 9 11 12 13 11 11 12 12 10 9 9 10 11 11 11 10 10 10 10 10 10 11 11 10 10 10 10 11 11 11 11 11 10 9 10 9 9 8 8
6 5 1 6 11 11 9 8 8 9 9 10 11 13 10 10 11 10 10 8 8 9 11 10 11 11 10 10 10 10 10 10 10 10 9 10 10 10 10 10 11 11 10 9 9 8 8 7 6
6 4 4 8 10 11 9 8 8 9 9 8 9 11 10 9 9 9 9 8 8 9 9 8 8 9 10 10 10 10 9 9 9 9 10 10 10 10 10 10 10 10 9 9 9 8 8 7 5
4 4 5 8 9 10 9 9 9 9 10 8 7 9 10 11 10 9 9 8 7 8 8 6 7 7 7 7 9 9 9 9 9 10 9 9 10 10 10 10 10 10 9 9 8 7 7 6 5
5 1 5 7 8 8 8 10 10 10 11 10 12 13 14 14 11 9 8 7 6 7 6 6 5 5 5 6 8 7 7 8 8 8 8 7 5 6 7 9 11 11 10 9 8 8 6 6 6
1 3 7 7 7 7 7 8 8 9 10 11 14 15 15 13 11 9 8 7 7 7 7 5 4 4 4 5 5 4 4 5 4 4 4 3 3 4 6 10 12 11 10 9 9 8 7 5 4
2 5 6 5 5 5 6 7 7 8 9 10 13 14 12 12 10 8 8 8 7 7 6 6 5 3 3 3 4 2 2 3 3 4 3 3 3 3 4 4 6 6 8 5 6 6 4 3 1
3 5 4 5 4 4 6 7 10 10 10 11 13 14 12 11 10 8 8 8 7 6 6 6 5 3 3 3 3 3 3 3 3 3 3 2 2 2 2 2 3 3 2 3 3 2 2 2 1
2 3 3 3 3 5 6 6 9 11 11 12 13 13 12 11 10 8 8 8 7 7 7 6 5 4 3 2 1 3 3 3 3 3 3 3 2 2 2 2 2 2 2 3 2 2 2 2 1
1 2 2 2 3 4 6 7 7 11 12 12 12 11 10 10 10 9 8 8 8 7 6 6 5 5 3 2 1 2 3 2 2 2 3 3 2 2 2 2 2 2 2 2 2 3 2 1 1
3 2 2 2 4 5 6 7 7 10 11 11 11 10 10 10 9 9 8 7 8 7 6 6 5 5 3 2 1 2 2 3 2 2 3 3 3 3 2 2 2 2 3 3 2 2 2 2 2
7 4 2 4 4 5 4 6 7 9 10 10 9 9 9 9 9 9 9 7 8 7 5 4 5 6 4 2 1 2 2 2 2 2 2 3 2 2 2 2 2 2 2 2 2 2 1 1 1
6 4 3 3 2 3 4 7 8 9 9 9 9 9 9 9 9 9 10 9 8 7 6 5 5 5 4 3 1 2 2 1 2 2 2 2 2 2 1 1 1 2 2 2 2 2 2 1 1
5 3 2 2 2 2 4 8 9 8 9 8 9 9 9 9 9 9 9 10 9 8 6 5 5 4 4 3 2 1 2 2 2 2 2 3 2 2 2 1 1 2 2 2 1 1 1 1 1
6 5 2 1 2 2 1 5 9 8 7 8 9 9 9 9 10 10 9 10 10 9 7 6 5 4 3 2 2 2 2 2 2 2 3 3 2 2 2 1 2 2 2 2 2 1 2 1 1
7 6 4 3 2 2 1 2 7 9 8 8 8 9 10 10 10 10 10 9 9 9 7 7 6 5 4 3 2 2 1 1 2 2 3 2 2 2 2 2 1 1 2 2 1 1 1 1 2
8 6 5 5 3 3 2 3 5 8 9 8 8 9 10 11 11 10 9 9 9 9 9 7 6 6 4 4 3 2 2 1 2 2 2 2 2 2 1 1 1 1 2 1 2 2 2 2 1
7 5 7 7 5 4 4 3 5 8 9 9 8 9 9 10 11 11 10 9 8 9 9 7 7 6 5 5 4 4 3 2 2 2 2 2 3 2 2 2 1 1 1 1 2 1 1 1 1
7 7 9 8 6 6 5 4 3 6 7 9 8 8 9 10 11 11 11 9 9 8 9 9 7 6 5 5 4 3 3 2 2 2 3 3 3 3 2 2 1 1 1 1 1 0 0 1 1
7 9 10 8 7 8 7 6 3 4 7 8 10 10 9 9 10 11 10 9 8 8 8 9 8 7 6 6 5 3 3 2 3 2 2 2 3 3 3 3 2 1 1 1 1 1 1 1 2
9 8 6 5 5 6 5 4 2 5 7 6 8 10 9 9 9 10 11 10 8 8 8 8 8 7 7 6 5 4 3 3 3 3 3 2 2 2 3 2 2 1 1 1 1 1 2 2 3
9 9 7 7 7 6 5 4 2 6 7 6 5 8 9 10 9 10 11 10 9 9 8 8 8 7 7 6 5 4 3 3 3 3 2 2 1 2 3 2 3 2 2 2 1 2 2 2 3
10 9 10 10 11 9 4 3 4 3 7 7 6 6 8 10 10 10 11 11 10 9 8 8 8 7 7 7 6 5 4 3 2 2 2 1 1 1 3 2 2 2 1 1 1 2 1 1 2
11 9 7 8 8 7 6 4 2 3 5 6 6 5 6 8 10 10 10 10 10 9 8 8 8 7 7 7 6 5 4 3 2 2 1 0 1 1 2 2 2 2 1 1 1 1 1 1 1
10 10 9 8 8 7 6 3 3 5 3 4 6 6 6 7 9 10 10 10 10 10 10 9 8 7 6 7 6 5 5 4 4 2 2 1 1 1 1 1 1 1 1 1 1 1 1 1 1
10 9 10 8 7 7 7 4 3 3 2 2 3 5 5 6 7 8 9 10 9 9 9 9 8 8 7 5 5 5 5 4 4 3 2 2 2 1 1 1 1 2 2 1 1 2 1 1 1
Wind_Direction
197 207 218 239 246 235 57 55 57 58 60 55 47 52 56 46 51 82 97 84 91 101 102 97 83 79 87 99 104 107 112 112 116 120 123 125 127 129 123 123 125 124 123 120 119 122 123 126 125
220 211 223 246 268 60 66 65 61 58 64 71 61 60 66 61 74 99 98 88 97 103 100 95 90 84 87 95 101 106 111 114 116 120 122 125 126 127 126 125 125 125 125 124 124 128 126 127 129
245 240 244 230 54 62 66 65 73 73 73 74 73 61 53 67 77 91 98 102 99 100 101 101 97 91 89 92 100 102 105 113 117 120 121 124 128 130 129 128 128 128 127 127 129 130 129 130 135
242 234 238 247 67 71 75 75 79 78 75 70 75 77 68 56 83 98 104 97 96 98 104 108 104 98 93 93 96 99 102 111 118 120 123 127 131 133 132 131 132 133 132 131 133 136 134 129 128
235 259 243 73 75 73 72 72 75 73 71 73 77 87 83 79 92 102 105 98 97 99 104 111 112 107 101 99 101 101 104 112 118 122 124 127 131 134 135 135 135 136 136 131 135 137 136 133 130
245 241 69 74 79 79 76 76 79 84 83 91 95 95 85 96 101 104 104 103 102 103 108 116 120 114 107 105 107 107 108 110 117 122 126 129 132 135 137 138 139 139 138 133 129 133 133 133 136
263 303 49 73 81 80 75 73 71 80 81 80 96 100 106 111 111 109 104 100 96 97 102 116 127 122 116 112 111 115 115 117 120 124 130 132 135 137 139 140 141 141 141 138 136 136 142 146 153
280 321 30 66 79 82 80 76 75 79 79 83 86 100 122 127 126 115 107 103 99 99 102 108 118 124 128 121 117 118 123 125 127 129 133 137 142 144 144 143 143 143 145 144 142 145 154 161 173
270 332 43 59 76 85 86 86 87 88 85 76 72 93 118 130 129 122 121 119 114 108 110 104 103 112 123 121 122 123 125 127 131 137 142 148 153 150 147 146 146 148 151 153 156 163 170 179 192
247 63 57 50 72 90 91 94 105 102 96 93 92 101 120 131 133 134 131 126 118 111 113 106 100 98 103 106 112 126 129 122 131 131 144 152 148 149 138 148 153 156 162 166 171 174 182 197 200
61 70 72 75 70 90 95 97 93 94 101 108 118 124 130 134 134 133 128 116 112 112 109 111 104 88 88 99 114 121 113 116 124 117 131 132 127 135 137 147 155 163 171 175 170 180 194 196 193
67 69 74 82 81 86 79 81 85 80 89 106 122 132 136 137 135 132 126 125 122 118 108 104 99 89 73 85 109 113 107 115 115 122 122 122 118 128 137 143 145 165 169 160 165 179 186 182 181
67 87 81 90 87 88 92 87 96 99 104 111 123 133 138 139 137 134 132 128 126 124 119 113 102 95 77 55 75 108 112 121 118 125 132 131 135 136 134 141 152 159 156 156 151 173 173 174 183
69 120 130 124 128 124 112 105 105 115 120 121 129 138 142 140 139 137 135 137 135 129 128 122 114 109 97 86 58 80 105 111 109 113 124 133 124 128 141 150 154 152 153 147 151 164 164 163 164
248 199 178 186 176 145 122 95 104 122 127 127 134 143 145 145 144 140 142 144 136 135 131 130 129 115 110 103 104 97 91 108 110 112 121 127 139 148 160 155 155 157 151 150 156 154 152 159 160
250 232 196 220 186 152 150 114 124 135 135 136 138 140 145 148 152 147 147 148 139 133 127 134 131 128 129 121 85 94 93 104 117 131 132 138 137 146 146 146 154 153 148 155 157 154 146 157 149
257 243 207 199 159 166 159 135 144 150 140 146 149 149 149 146 150 152 156 155 144 138 139 136 123 132 136 134 122 109 110 110 116 121 121 122 130 134 128 134 151 153 143 151 174 146 165 173 173
281 286 236 192 166 183 145 137 149 159 151 156 157 155 155 152 153 153 158 153 148 146 146 144 141 139 148 143 132 119 126 132 121 111 106 111 119 125 123 136 143 142 140 143 154 149 175 188 197
257 283 288 246 204 212 136 145 155 163 165 162 161 158 159 158 154 152 153 154 154 152 152 154 154 150 151 147 163 159 163 154 127 121 110 121 133 130 136 123 133 138 141 156 176 167 200 202 178
247 263 262 252 236 207 153 191 166 169 177 169 169 165 161 159 153 155 157 155 157 154 157 157 162 161 161 150 155 165 169 153 136 118 121 133 135 138 151 135 146 141 150 154 180 175 211 233 205
256 257 260 262 238 211 198 242 195 176 177 170 172 169 167 163 158 158 163 166 162 162 165 167 166 161 163 157 161 149 141 151 133 129 129 141 145 144 113 134 150 157 161 180 206 194 208 232 233
264 269 269 266 260 255 247 249 202 182 180 177 176 172 168 164 159 165 168 166 166 165 164 156 159 161 163 167 174 181 169 160 149 144 144 158 151 144 151 146 140 171 176 171 214 183 221 225 254
271 275 271 272 269 264 249 251 205 187 184 173 170 170 167 165 164 165 167 166 165 161 161 158 154 162 166 174 171 182 168 167 154 155 159 168 157 154 165 165 163 179 188 191 225 208 197 233 265
263 267 269 265 257 254 252 247 220 195 182 174 169 163 163 167 164 161 157 156 160 159 158 157 155 163 171 176 174 182 174 171 161 169 172 186 161 164 181 179 181 193 207 205 227 247 201 239 274
244 255 261 254 245 257 268 261 170 152 148 151 156 158 161 160 161 160 157 159 160 158 152 148 154 164 173 176 176 184 184 185 185 197 195 198 179 171 177 180 177 194 215 225 248 238 230 245 262
242 250 256 265 263 257 235 239 165 135 125 119 140 158 162 161 161 156 157 158 160 159 153 149 153 164 170 174 174 180 185 198 203 201 209 208 203 161 156 172 176 191 209 228 242 249 239 247 263
241 247 263 271 273 274 251 204 164 148 139 146 158 158 159 159 159 161 159 159 161 160 157 158 156 164 169 174 172 175 181 199 205 192 207 205 152 162 144 164 165 185 198 221 242 247 259 270 270
245 250 256 257 269 271 274 252 209 180 171 164 158 158 157 164 163 166 162 162 162 163 160 159 158 163 170 174 181 175 177 185 188 200 184 187 131 93 137 156 176 188 190 204 250 259 272 277 281
237 245 260 271 271 274 268 269 166 172 191 187 167 161 163 173 169 169 166 164 166 167 163 163 163 163 170 179 177 171 173 184 190 196 191 178 168 172 185 185 193 207 199 214 220 235 227 242 284
249 244 250 256 268 274 273 260 144 149 154 134 146 155 158 167 165 169 166 164 170 169 165 166 167 168 173 173 172 175 175 184 190 189 198 175 172 194 192 198 195 211 204 216 225 247 235 228 255